EA3KZ-1 Weather Reports


Display with metric or nautical units.
time (UTC)temp
F
wind
direction
speed
MPH
gust
MPH
rain 1hr
in
rain 24hr
in
rain mn
in
humidity
%
barometer
mb
20260510130611 68 170 7.0 13.0 0.00 0.43 0.00 60 1006.6
20260510125609 69 91 4.0 11.0 0.00 0.43 0.00 63 1006.7
20260510124606 69 122 5.0 11.0 0.00 0.43 0.00 62 1006.7
20260510123604 69 82 7.0 13.0 0.00 0.43 0.00 62 1006.8
20260510122601 68 121 8.0 21.0 0.00 0.43 0.00 67 1007.0
20260510121558 68 116 5.0 11.0 0.00 0.43 0.00 66 1007.2
20260510120556 69 130 5.0 14.0 0.00 0.43 0.00 63 1007.2
20260510115553 69 92 5.0 11.0 0.00 0.43 0.00 62 1007.1
20260510114551 69 105 6.0 15.0 0.00 0.43 0.00 63 1007.3
20260510113548 68 98 8.0 16.0 0.00 0.43 0.00 65 1007.5
20260510112545 68 124 7.0 15.0 0.00 0.43 0.00 66 1007.5
20260510111543 69 111 3.0 8.0 0.00 0.43 0.00 65 1007.4
20260510110540 68 126 7.0 14.0 0.00 0.43 0.00 67 1007.6
20260510105537 68 151 5.0 11.0 0.00 0.43 0.00 68 1007.6
20260510104535 67 156 7.0 13.0 0.00 0.43 0.00 70 1007.7
20260510103532 67 154 5.0 11.0 0.00 0.43 0.00 71 1007.8
20260510102529 65 221 2.0 8.0 0.00 0.43 0.00 75 1007.8
20260510101527 66 192 4.0 9.0 0.00 0.43 0.00 72 1007.9
20260510100524 66 164 4.0 11.0 0.00 0.43 0.00 74 1008.0
20260510095522 65 139 3.0 11.0 0.00 0.43 0.00 74 1008.0
20260510094519 64 130 5.0 11.0 0.00 0.43 0.00 75 1008.1
20260510093517 64 132 6.0 14.0 0.00 0.43 0.00 76 1008.0
20260510092614 63 135 5.0 8.0 0.00 0.43 0.00 77 1008.1
20260510091612 63 133 6.0 9.0 0.00 0.43 0.00 78 1008.2
20260510090609 62 166 5.0 11.0 0.00 0.43 0.00 80 1008.0
20260510085606 62 161 4.0 11.0 0.00 0.43 0.00 80 1008.1
20260510084604 61 126 5.0 13.0 0.00 0.43 0.00 82 1008.0
20260510083601 61 120 4.0 11.0 0.00 0.43 0.00 82 1008.1
20260510082559 60 128 4.0 9.0 0.00 0.43 0.00 83 1008.1
20260510081556 60 131 5.0 9.0 0.00 0.43 0.00 83 1008.0
20260510080553 59 124 7.0 13.0 0.00 0.43 0.00 84 1007.8
20260510075551 58 123 5.0 11.0 0.00 0.43 0.00 84 1007.9
20260510074548 58 135 6.0 11.0 0.00 0.43 0.00 84 1007.8
20260510073546 58 119 5.0 11.0 0.00 0.43 0.00 85 1007.8
20260510072543 58 172 6.0 11.0 0.00 0.43 0.00 85 1007.6
20260510071540 58 154 3.0 7.0 0.00 0.43 0.00 86 1007.6
20260510070538 57 137 4.0 9.0 0.00 0.43 0.00 85 1007.4
20260510065535 57 177 4.0 7.0 0.00 0.43 0.00 86 1007.4
20260510064533 57 144 2.0 4.0 0.00 0.43 0.00 89 1007.5
20260510063530 56 101 1.0 4.0 0.00 0.43 0.00 90 1007.5
20260510062527 56 101 1.0 2.0 0.00 0.43 0.00 91 1007.4
20260510061525 55 0.0 2.0 0.00 0.43 0.00 92 1007.4
20260510060522 54 229 1.0 2.0 0.00 0.43 0.00 94 1007.3
20260510055520 53 218 0.0 2.0 0.00 0.43 0.00 95 1007.3
20260510054517 52 158 0.0 2.0 0.00 0.43 0.00 95 1007.4
20260510053615 52 0.0 2.0 0.00 0.43 0.00 95 1007.4
20260510052612 52 152 0.0 2.0 0.00 0.43 0.00 95 1007.3
20260510050607 52 163 1.0 4.0 0.00 0.43 0.00 95 1007.1
20260510045604 51 215 1.0 2.0 0.00 0.43 0.00 95 1007.1
20260510044602 51 227 2.0 6.0 0.00 0.43 0.00 95 1007.3
20260510043559 52 234 1.0 2.0 0.00 0.43 0.00 95 1007.3
20260510042556 52 240 0.0 2.0 0.00 0.43 0.00 95 1007.4
20260510041554 52 229 2.0 4.0 0.00 0.43 0.00 95 1007.3
20260510040551 52 227 1.0 4.0 0.00 0.43 0.00 96 1007.3
20260510035548 52 232 2.0 4.0 0.00 0.43 0.00 96 1007.4
20260510034546 52 226 1.0 4.0 0.00 0.43 0.00 96 1007.5
20260510033543 52 235 1.0 2.0 0.00 0.43 0.00 96 1007.4
20260510032541 52 0.0 2.0 0.00 0.43 0.00 96 1007.5
20260510031538 52 0.0 0.0 0.00 0.43 0.00 95 1007.4
20260510030536 52 0.0 0.0 0.00 0.43 0.00 95 1007.5
20260510025533 52 0.0 2.0 0.00 0.43 0.00 95 1007.7
20260510024530 53 276 1.0 2.0 0.00 0.43 0.00 95 1007.6
20260510023528 52 0.0 2.0 0.00 0.43 0.00 95 1007.9
20260510022525 52 180 0.0 2.0 0.00 0.43 0.00 95 1008.0
20260510021523 53 189 1.0 2.0 0.00 0.43 0.00 95 1007.8
20260510020520 53 180 1.0 4.0 0.00 0.43 0.00 94 1007.9
20260510015517 53 205 1.0 4.0 0.00 0.43 0.00 94 1007.7
20260510014515 53 194 1.0 2.0 0.00 0.43 0.00 93 1007.7
20260510013612 53 213 1.0 2.0 0.00 0.43 0.00 93 1007.7
20260510012610 53 222 1.0 2.0 0.00 0.43 0.00 94 1007.6
20260510011607 54 251 1.0 2.0 0.00 0.43 0.00 94 1007.8
20260510010604 53 225 0.0 2.0 0.00 0.43 0.00 95 1007.6
20260510005602 53 256 1.0 2.0 0.00 0.43 0.00 95 1007.9
20260510004559 53 270 0.0 2.0 0.00 0.43 0.00 95 1007.9
20260510003557 53 229 1.0 2.0 0.00 0.43 0.00 95 1008.2
20260510002554 53 193 1.0 2.0 0.00 0.43 0.00 94 1008.1
20260510001551 54 203 0.0 2.0 0.00 0.43 0.00 94 1008.1
20260510000549 54 225 2.0 4.0 0.00 0.43 0.00 95 1008.4
20260509235546 54 225 3.0 4.0 0.00 0.43 0.43 95 1008.9
20260509234544 54 203 1.0 4.0 0.00 0.43 0.43 95 1008.8
20260509233541 55 230 2.0 4.0 0.00 0.43 0.43 95 1008.8
20260509232539 55 229 3.0 4.0 0.00 0.43 0.43 95 1008.8
20260509231536 55 206 2.0 4.0 0.00 0.43 0.43 95 1008.9
20260509230533 55 203 2.0 4.0 0.00 0.43 0.43 96 1008.9
20260509225531 55 232 2.0 4.0 0.00 0.43 0.43 96 1009.0
20260509224528 55 237 2.0 4.0 0.00 0.43 0.43 96 1009.0
20260509223525 55 170 2.0 4.0 0.00 0.43 0.43 96 1009.0
20260509222523 55 226 1.0 4.0 0.00 0.43 0.43 96 1008.9
20260509221520 55 212 2.0 4.0 0.00 0.43 0.43 96 1008.9
20260509220518 55 206 2.0 4.0 0.00 0.43 0.43 96 1008.9
20260509215515 55 195 1.0 4.0 0.00 0.43 0.43 96 1008.8
20260509214612 55 212 0.0 4.0 0.00 0.43 0.43 96 1008.9
20260509213610 55 180 1.0 2.0 0.00 0.43 0.43 96 1008.8
20260509212607 55 232 1.0 4.0 0.00 0.43 0.43 96 1008.7
20260509211605 55 235 2.0 4.0 0.00 0.43 0.43 97 1008.8
20260509210602 55 241 2.0 4.0 0.00 0.43 0.43 97 1008.7
20260509205559 55 223 1.0 4.0 0.00 0.43 0.43 97 1008.8
20260509204557 55 179 1.0 2.0 0.00 0.43 0.43 97 1008.7
20260509203554 55 194 2.0 2.0 0.00 0.43 0.43 96 1008.5
20260509202552 56 116 1.0 2.0 0.00 0.43 0.43 96 1008.3
20260509201549 55 0.0 0.0 0.00 0.43 0.43 96 1008.1
20260509200546 56 0.0 2.0 0.00 0.43 0.43 96 1008.0
20260509195544 56 113 0.0 2.0 0.00 0.43 0.43 96 1007.8
20260509194541 56 0.0 2.0 0.00 0.43 0.43 96 1007.7
20260509193539 56 140 1.0 2.0 0.00 0.43 0.43 96 1007.6
20260509192536 56 136 2.0 4.0 0.00 0.43 0.43 96 1007.5
20260509191533 56 148 2.0 4.0 0.00 0.43 0.43 96 1007.4
20260509190531 56 128 1.0 4.0 0.00 0.43 0.43 95 1007.0
20260509185528 56 102 2.0 4.0 0.00 0.43 0.43 95 1006.9
20260509184526 57 93 1.0 2.0 0.00 0.43 0.43 94 1006.6
20260509183523 57 37 1.0 4.0 0.01 0.43 0.43 93 1006.5
20260509182520 57 130 2.0 4.0 0.01 0.43 0.43 91 1006.5
20260509181518 57 90 0.0 2.0 0.04 0.43 0.43 89 1006.0
20260509180515 57 235 1.0 4.0 0.05 0.43 0.43 88 1005.8
20260509175613 56 235 2.0 6.0 0.06 0.43 0.43 89 1005.7
20260509174610 55 259 3.0 9.0 0.08 0.43 0.43 93 1005.5
20260509173607 55 295 2.0 9.0 0.11 0.41 0.41 95 1005.6
20260509172605 55 270 4.0 9.0 0.17 0.41 0.41 96 1005.5
20260509171602 56 275 4.0 11.0 0.15 0.39 0.39 96 1006.0
20260509170600 56 289 5.0 8.0 0.15 0.38 0.38 96 1006.3
20260509165557 56 297 3.0 7.0 0.15 0.37 0.37 97 1006.8
20260509164554 56 287 2.0 4.0 0.15 0.34 0.34 96 1007.3
20260509163552 56 293 0.0 2.0 0.17 0.31 0.31 96 1007.7
20260509162549 56 158 0.0 2.0 0.13 0.25 0.25 96 1008.1
20260509161547 57 136 1.0 2.0 0.13 0.24 0.24 96 1008.4
20260509160544 57 122 1.0 2.0 0.13 0.22 0.22 96 1008.5
20260509155541 57 123 1.0 4.0 0.13 0.21 0.21 95 1008.7
20260509154539 57 145 3.0 7.0 0.12 0.19 0.19 94 1008.7
20260509153536 57 121 4.0 8.0 0.09 0.14 0.14 93 1008.7
20260509152533 57 113 3.0 8.0 0.09 0.12 0.12 93 1008.1
20260509151531 57 272 1.0 4.0 0.09 0.11 0.11 93 1006.5
20260509150528 57 313 3.0 6.0 0.09 0.09 0.09 92 1006.0
20260509145526 57 307 6.0 9.0 0.08 0.08 0.08 92 1006.2
20260509144523 57 297 5.0 8.0 0.07 0.07 0.07 92 1006.1
20260509143520 57 348 7.0 14.0 0.05 0.05 0.05 90 1006.5
20260509142518 58 331 6.0 11.0 0.02 0.02 0.02 88 1007.1
20260509141515 59 19 6.0 11.0 0.01 0.01 0.01 86 1007.4
20260509140613 60 354 5.0 13.0 0.00 0.00 0.00 82 1007.8
20260509135610 61 36 7.0 16.0 0.00 0.00 0.00 77 1007.9
20260509134607 62 2 4.0 8.0 0.00 0.00 0.00 74 1008.1
20260509133605 62 344 6.0 11.0 0.00 0.00 0.00 75 1008.1
20260509132602 62 1 4.0 8.0 0.00 0.00 0.00 77 1008.1
20260509131600 62 16 3.0 7.0 0.00 0.00 0.00 78 1008.0